Zurück zum Katalog

STARLINK-30840

AktivKommunikationVLEO
NORAD 58223·PAYLOAD·🇺🇸 United States

Gestartet Nov 3, 2023 von Cape Canaveral Space Force Station

Loading…

Nächste Überflüge (nächste 24 Stunden)

TLE

AktuellSource: CelesTrak SupGP

Epoche: Sep 14, 2026, 20:56 UTC

1 58223C 23170T   26257.87270833  .00020628  00000+0  74721-3 0  2571
2 58223  43.0021 206.1488 0001287 258.4582 277.9140 15.27565020    17

Verfolge STARLINK-30840 in Echtzeit mit AllMySat

Download on the App Store